Regional Weather Roundup
Issued by NWS

Home | Current Version | Previous Version | Graphics & Text | Print | Product List | Glossary On
Versions: 1 2 3 4 5 6 7 8 9 10 11 12 13 14 15 16 17 18 19 20 21 22 23 24 25 26 27 28 29 30 31 32 33 34 35 36 37 38 39 40 41 42 43 44 45 46 47 48 49 50
630
ASUS43 KOAX 262110
RWRNE

WEATHER ROUNDUP FOR NEBRASKA
NATIONAL WEATHER SERVICE OMAHA NE
400 PM CDT FRI AUG 26 2016

NOTES: SATELLITE DATA IS BEING USED TO AUGMENT CLOUD COVER ABOVE
       12000 FEET.
       "FAIR" INDICATES FEW OR NO CLOUDS BELOW 12,000 FEET WITH NO
       SIGNIFICANT WEATHER AND/OR OBSTRUCTIONS TO VISIBILITY.

  * THESE STATIONS DO NOT REPORT WEATHER SUCH AS RAIN...SNOW OR FOG.

NEZ001>004-019>022-054>056-262200-
NEBRASKA PANHANDLE

CITY           SKY/WX    TMP DP  RH WIND       PRES   REMARKS
SCOTTSBLUFF    SUNNY     70  53  54 E14       30.05F
ALLIANCE       SUNNY     68  52  56 SE13      30.09F
CHADRON        PTSUNNY   71  52  50 CALM      30.04F
KIMBALL        MOSUNNY   72  55  54 SE12G20   30.08F
SIDNEY         CLOUDY    67  58  72 SE13      30.08F
$$

NEZ057>060-069>072-079>082-262200-
SOUTHWEST NEBRASKA

CITY           SKY/WX    TMP DP  RH WIND       PRES   REMARKS
NORTH PLATTE   CLOUDY    73  55  53 E12       30.07F
IMPERIAL       CLOUDY    66  60  81 N9        30.07F
LEXINGTON      PTSUNNY   73  56  53 SE10      30.07F
MCCOOK         CLOUDY    74  55  51 CALM      30.06F
OGALLALA       LGT RAIN  61  57  88 E7        30.09F
$$

NEZ005>010-023>029-035>040-094-262200-
NORTH CENTRAL NEBRASKA

CITY           SKY/WX    TMP DP  RH WIND       PRES   REMARKS
VALENTINE      LGT RAIN  62  56  80 NW10      30.12F
AINSWORTH      CLOUDY    71  54  55 E5        30.10F
BROKEN BOW     CLOUDY    70  56  61 SE10      30.08F
O`NEILL        CLOUDY    74  52  44 SE8       30.11S
ORD            CLOUDY    72  54  53 SE9       30.07F
THEDFORD       LGT RAIN  69  57  64 CALM      30.10F
$$

NEZ041-046>049-061>064-073>077-083>087-262200-
SOUTH CENTRAL NEBRASKA

CITY           SKY/WX    TMP DP  RH WIND       PRES   REMARKS
GRAND ISLAND   CLOUDY    72  58  61 E9        30.08F
AURORA         CLOUDY    68  64  84 E8        30.08S
HASTINGS       CLOUDY    72  60  66 E7        30.07F
HEBRON         CLOUDY    71  65  84 CALM      30.05F
HOLDREGE       CLOUDY    71  57  61 E12       30.07F
KEARNEY *      CLOUDY    72  55  56 E10       30.06F
YORK           CLOUDY    64  63  94 SE6       30.08F FOG
$$

NEZ011>018-030>034-042>045-262200-
NORTHEAST NEBRASKA

CITY           SKY/WX    TMP DP  RH WIND       PRES   REMARKS
NORFOLK        CLOUDY    71  59  65 SE9       30.09F
ALBION         CLOUDY    71  59  65 E5        30.09F
BLAIR          CLOUDY    68  62  81 E8        30.08F
FREMONT        CLOUDY    67  59  74 E6        30.09F
TEKAMAH        CLOUDY    70  60  70 E7        30.09F
WAYNE          CLOUDY    70  62  76 SE9       30.11F
$$

NEZ050>053-065>068-078-088>093-262200-
SOUTHEAST NEBRASKA

CITY           SKY/WX    TMP DP  RH WIND       PRES   REMARKS
LINCOLN        CLOUDY    69  64  84 E5        30.08F
OMAHA EPPLEY   CLOUDY    71  64  78 E9        30.07F
BEATRICE       PTSUNNY   70  66  86 E3        30.06F
FALLS CITY     PTSUNNY   76  69  79 E6        30.03F
NEBRASKA CITY  CLOUDY    68  68  99 E5        30.07F
PLATTSMOUTH    CLOUDY    71  63  76 E6        30.08F
$$

NEZ044-045-051>053-067-262200-
OMAHA AREA

CITY           SKY/WX    TMP DP  RH WIND       PRES   REMARKS
OMAHA EPPLEY   CLOUDY    71  64  78 E9        30.07F
BLAIR          CLOUDY    68  62  81 E8        30.08F
FREMONT        CLOUDY    67  59  74 E6        30.09F
MILLARD        CLOUDY    72  63  73 SE10      30.07F
OFFUTT AFB     PTSUNNY   71  62  73 E10       30.06F
PLATTSMOUTH    CLOUDY    71  63  76 E6        30.08F
WAHOO          CLOUDY    67  61  79 E7        30.08F
$$




USA.gov is the U.S. government's official web portal to all federal, state and local government web resources and services.